Regional Weather Roundup
Issued by NWS Cleveland, OH

Home | Current Version | Previous Version | Text Only | Print | Product List | Glossary On
Versions: 1 2 3 4 5 6 7 8 9 10 11 12 13 14 15 16 17 18 19 20 21 22 23 24 25 26 27 28 29 30 31 32 33 34 35 36 37 38 39 40 41 42 43 44 45 46 47 48 49 50
000
ASUS41 KCLE 230210
RWRCLE
OHIO REGIONAL WEATHER ROUNDUP
NATIONAL WEATHER SERVICE CLEVELAND, OH
1000 PM EDT FRI AUG 22 2014

NOTE: "FAIR" INDICATES FEW OR NO CLOUDS BELOW 12,000 FEET WITH NO
SIGNIFICANT WEATHER AND/OR OBSTRUCTIONS TO VISIBILITY.

OHZ001>008-015>018-024>027-034-035-043-044-230300-
   NORTHWEST OHIO

CITY           SKY/WX    TMP DP  RH WIND       PRES   REMARKS
DEFIANCE       CLOUDY    76  72  87 CALM      29.99R
FINDLAY        CLEAR     76  74  93 NE3       29.98R
TOLEDO EXPRESS MOCLDY    73  71  93 CALM      29.99R FOG
TOLEDO EXEC    MOCLDY    73  69  87 CALM      30.00R
LIMA           MOCLDY    76  72  87 CALM      30.00R
$$

OHZ009>014-019>023-028>033-038-089-230300-
   NORTHEAST OHIO

CITY           SKY/WX    TMP DP  RH WIND       PRES   REMARKS
CLE-HOPKINS    PTCLDY    73  69  87 N5        30.01R
CLE-LAKEFRONT  CLEAR     74  71  91 NE6       29.98R
CUY CO. ARPT   CLEAR     73  72  94 E5        30.01R
LORAIN-ELYRIA  CLEAR     74  68  81 E3        30.00R
ASHTABULA      CLEAR     69  66  90 NE3       30.01R
AKRON-CANTON   PTCLDY    73  69  87 NE6       30.00R
WOOSTER        CLEAR     73  67  81 N5        30.01R
MANSFIELD      CLEAR     73  71  93 NE3       30.01R
YOUNGSTOWN     MOCLDY    71  68  90 NE7       30.00R
$$

OHZ042-051>053-060>062-070>072-077>081-230300-
  SOUTHWEST OHIO

CITY           SKY/WX    TMP DP  RH WIND       PRES   REMARKS
CINC-COVINGTON PTCLDY    78  71  79 CALM      30.01R
CINC-LUNKEN    PTCLDY    77  72  84 S3        29.99R
HAMILTON       CLEAR     75  74  96 CALM      29.99R
DAYTON         PTCLDY    75  71  87 CALM      30.01R
WRIGHT-PAT AFB PTCLDY    75  72  92 N2        30.00R
DAYTON GENERAL PTCLDY    78  72  81 NW3       30.00R
WILMINGTON     PTCLDY    73  71  93 CALM      30.00R
$$

OHZ036-037-039>041-045>050-054>059-063>069-073>076-082>088-230300-
  CENTRAL AND SOUTHEAST OHIO

CITY           SKY/WX    TMP DP  RH WIND       PRES   REMARKS
COLUMBUS       MOCLDY    79  72  79 CALM      29.98R
OSU AIRPORT    MOCLDY    76  72  87 NW3       29.99R
BOLTON FIELD   MOCLDY    74  74  98 W6        30.00R
RICKENBACK AFB MOCLDY    74  69  83 W3        29.98R
NEWARK         MOCLDY    74  72  93 CALM      29.98R
MARION         CLEAR     74  72  93 CALM      30.00R
LANCASTER      MOCLDY    73  71  93 CALM      29.99R
ZANESVILLE     RAIN      75  72  90 S10       29.98R FOG
NEW PHILLY     PTCLDY    71  70  96 CALM      29.99R
$$


USA.gov is the U.S. government's official web portal to all federal, state and local government web resources and services.